Notices

What's New in latest Release from April 7th, 2021:

- Updated Glossary, including Speed of Maximum Gust, and Total Hourly Precipitation

- Updated national and regional climate services offices contacts and prices information

- Addition of station inventory lists for 1981-2010, 1971-2000, and 1961-1990 Normals.

If you haven't already, please take our survey and provide feedback about our website: https://eccc.sondage-survey.ca/f/LanguageSelection.aspx?s=442ca660-fcf1-47c0-95a9-59707d6fd709

Hourly Data Report for January 04, 2021

SHEARWATER RCS
NOVA SCOTIA
Current Station Operator: ECCC - MSC

44°37'47.000" N
63°30'48.000" W
24.00 m
8205092
71264
AAW

Download Data

Hourly Data (January 2021)
Hourly Data Report for January 4, 2021
TIME
LST
Temp Definition
°C
Dew Point Definition
°C
Rel Hum Definition
%
Precip. Amount Definition
mm

Wind Dir Definition
10's deg

Wind Spd Definition
km/h
Visibility Definition
km
Stn Press Definition
kPa
Hmdx Definition


Wind Chill Definition


Weather Definition


00:00 -1.8 -3.6 88 0.0 1 13   101.56   -6 LegendNANA
01:00 -1.5 -3.4 87 0.0 1 13   101.57   -6 LegendNANA
02:00 -1.5 -3.4 87 0.0 1 14   101.56   -6 LegendNANA
03:00 -1.4 -3.3 86 0.0 2 14   101.54   -6 LegendNANA
04:00 -1.4 -3.2 88 0.0 2 15   101.45   -6 LegendNANA
05:00 -1.2 -2.9 88 0.0 3 14   101.41   -6 LegendNANA
06:00 -1.0 -2.7 88 0.0 3 12   101.43   -5 LegendNANA
07:00 -0.8 -2.7 87 0.0 3 13   101.42   -5 LegendNANA
08:00 -0.9 -2.4 90 0.0 3 15   101.40   -6 LegendNANA
09:00 -0.4 -2.2 88 0.0 3 17   101.42   -5 LegendNANA
10:00 0.2 -1.7 87 0.0 3 17   101.38     LegendNANA
11:00 0.7 -1.4 86 0.0 3 14   101.37     LegendNANA
12:00 1.0 -1.1 85 0.0 3 16   101.35     LegendNANA
13:00 1.3 -0.9 86 0.0 3 16   101.20     LegendNANA
14:00 1.3 -0.9 85 0.0 3 16   101.17     LegendNANA
15:00 1.3 -0.9 86 0.0 4 17   101.12     LegendNANA
16:00 1.2 -1.1 85 0.0 4 18   101.11     LegendNANA
17:00 1.1 -1.2 85 0.0 3 20   101.14     LegendNANA
18:00 1.0 -1.2 85 0.0 3 20   101.11     LegendNANA
19:00 1.0 -1.0 86 0.0 4 23   101.03     LegendNANA
20:00 1.2 -0.7 87 0.0 4 24   101.00     LegendNANA
21:00 1.4 -0.5 87 0.0 4 23   100.97     LegendNANA
22:00 1.4 -0.1 89 0.0 5 26   100.90     LegendNANA
23:00 1.5 0.2 91 0.0 5 28   100.82     LegendNANA

Notes on Data Quality.

Legend

  • E = Estimated
  • M = Missing
  • NA = Not Available*
  • [empty] = Indicates an unobserved value
Date modified: